Location: Killam
(52.7910°N, 111.8608°W)
Time: 19:42:51
(UTC+00:00)

Vanguard 3 - Visible Passes

Search period start: 15 February 2026 00:00
Search period end: 25 February 2026 00:00
Orbit: 507 x 3205 km, 33.3° (Epoch: 15 February)

Date Brightness Start Highest point End Pass type
(mag) Time Alt. Az. Time Alt. Az. Time Alt. Az.
18 Feb 9.6 01:34:11 10° SSW 01:35:54 11° S 01:37:26 10° S visible
21 Feb 9.7 01:50:01 10° SW 01:52:29 12° SSW 01:54:37 10° S visible
24 Feb 10.0 02:08:14 10° SW 02:08:46 10° SSW 02:09:18 10° SSW visible
